{"data":{"norad_id":57739,"epoch":"2026-09-20T00:38:24.770976Z","epoch_age_seconds":171982,"freshness":"FRESH","line1":"1 57739U 23131H   26263.02667559  .00002774  00000+0  11031-3 0  9998","line2":"2 57739  43.0016 126.1404 0001708 256.8938 103.1723 15.27580208169979","mean_motion":15.27580208,"eccentricity":0.0001708,"inclination_deg":43.0016,"raan_deg":126.1404,"arg_perigee_deg":256.8938,"mean_anomaly_deg":103.1723,"bstar":0.00011031,"rev_number":16997,"period_min":94.266735878002,"perigee_km":481.87658273407,"apogee_km":484.22036369172,"semimajor_km":6861.1854732129,"source":"CELESTRAK","updated_at":"2026-09-21T09:00:33.679795Z"}}